Time,TemperatureF,DewpointF,PressureIn,WindDirection,WindDirectionDegrees,WindSpeedMPH,WindSpeedGustMPH,Humidity,HourlyPrecipIn,Conditions,Clouds,dailyrainin,SoftwareType,DateUTC
2013-04-01 00:00:00,46.6,42.3,29.61,SW,226,3.0,5.0,85,0.00,CLR,FEW,0.00,WeatherDisplay:10.37,2013-04-01 04:00:00,
2013-04-01 00:05:00,46.8,42.8,29.61,SW,223,3.0,7.0,86,0.00,RA,FEW,0.00,WeatherDisplay:10.37,2013-04-01 04:05:00,
2013-04-01 00:10:00,46.2,42.6,29.61,SW,219,5.0,7.0,87,0.00,RA,FEW,0.00,WeatherDisplay:10.37,2013-04-01 04:10:00,
2013-04-01 00:15:00,46.2,42.6,29.61,SSW,211,5.0,7.0,87,0.00,CLR,FEW,0.00,WeatherDisplay:10.37,2013-04-01 04:15:00,
2013-04-01 00:20:00,46.0,42.4,29.61,SSW,204,5.0,5.0,87,0.00,CLR,FEW,0.00,WeatherDisplay:10.37,2013-04-01 04:20:00,
2013-04-01 00:30:00,45.9,42.2,29.61,SW,226,5.0,5.0,87,0.00,CLR,FEW,0.00,WeatherDisplay:10.37,2013-04-01 04:30:00,
2013-04-01 00:40:00,45.9,42.2,29.61,SSW,205,3.0,6.0,87,0.00,CLR,FEW,0.00,WeatherDisplay:10.37,2013-04-01 04:40:00,
2013-04-01 00:50:00,45.7,42.0,29.61,SW,216,5.0,6.0,87,0.00,CLR,FEW,0.00,WeatherDisplay:10.37,2013-04-01 04:50:00,
2013-04-01 01:00:00,45.7,42.0,29.61,SW,226,6.0,7.0,87,0.00,CLR,FEW,0.00,WeatherDisplay:10.37,2013-04-01 05:00:00,
2013-04-01 01:05:00,46.0,42.4,29.61,SW,229,6.0,8.0,87,0.00,CLR,FEW,0.00,WeatherDisplay:10.37,2013-04-01 05:05:00,
2013-04-01 01:10:00,46.2,42.6,29.61,SW,232,6.0,7.0,87,0.00,CLR,FEW,0.00,WeatherDisplay:10.37,2013-04-01 05:10:00,
2013-04-01 01:15:00,46.4,42.1,29.61,SW,235,6.0,8.0,85,0.00,CLR,FEW,0.00,WeatherDisplay:10.37,2013-04-01 05:15:00,
2013-04-01 01:20:00,46.8,42.5,29.61,SW,224,8.0,12.0,85,0.00,CLR,FEW,0.00,WeatherDisplay:10.37,2013-04-01 05:20:00,
2013-04-01 01:30:00,47.1,42.5,29.61,WSW,258,10.0,14.0,84,0.00,CLR,FEW,0.00,WeatherDisplay:10.37,2013-04-01 05:30:00,
2013-04-01 01:40:00,47.3,42.7,29.61,WSW,256,10.0,13.0,84,0.00,CLR,FEW,0.00,WeatherDisplay:10.37,2013-04-01 05:40:00,
2013-04-01 01:50:00,47.3,42.7,29.61,West,264,9.0,15.0,84,0.00,CLR,FEW,0.00,WeatherDisplay:10.37,2013-04-01 05:50:00,
2013-04-01 01:55:00,47.3,42.7,29.61,West,269,10.0,15.0,84,0.00,CLR,FEW,0.00,WeatherDisplay:10.37,2013-04-01 05:55:00,
2013-04-01 02:00:00,47.3,42.7,29.61,West,274,8.0,11.0,84,0.00,CLR,FEW,0.00,WeatherDisplay:10.37,2013-04-01 06:00:00,
2013-04-01 02:05:00,47.3,42.4,29.61,West,267,9.0,12.0,83,0.00,CLR,FEW,0.00,WeatherDisplay:10.37,2013-04-01 06:05:00,
2013-04-01 02:10:00,47.3,42.1,29.61,West,274,9.0,10.0,82,0.00,CLR,FEW,0.00,WeatherDisplay:10.37,2013-04-01 06:10:00,
2013-04-01 02:20:00,47.3,40.8,29.61,WNW,284,13.0,17.0,78,0.00,CLR,FEW,0.00,WeatherDisplay:10.37,2013-04-01 06:20:00,
2013-04-01 02:30:00,46.4,39.2,29.61,WNW,301,14.0,21.0,76,0.00,CLR,FEW,0.00,WeatherDisplay:10.37,2013-04-01 06:30:00,
2013-04-01 02:40:00,45.7,38.5,29.64,NW,311,15.0,15.0,76,0.00,CLR,FEW,0.00,WeatherDisplay:10.37,2013-04-01 06:40:00,
2013-04-01 02:50:00,45.0,37.8,29.64,WNW,288,14.0,17.0,76,0.00,CLR,FEW,0.00,WeatherDisplay:10.37,2013-04-01 06:50:00,
2013-04-01 03:00:00,44.6,36.8,29.64,WNW,283,14.0,17.0,74,0.00,CLR,FEW,0.00,WeatherDisplay:10.37,2013-04-01 07:00:00,
2013-04-01 03:05:00,44.2,36.5,29.64,WNW,283,13.0,17.0,74,0.00,CLR,FEW,0.00,WeatherDisplay:10.37,2013-04-01 07:05:00,
2013-04-01 03:10:00,44.1,36.3,29.64,WNW,296,14.0,17.0,74,0.00,CLR,FEW,0.00,WeatherDisplay:10.37,2013-04-01 07:10:00,
2013-04-01 03:20:00,43.0,35.9,29.64,WNW,295,15.0,19.0,76,0.00,CLR,FEW,0.00,WeatherDisplay:10.37,2013-04-01 07:20:00,
2013-04-01 03:30:00,42.6,35.2,29.67,West,281,16.0,23.0,75,0.00,CLR,FEW,0.00,WeatherDisplay:10.37,2013-04-01 07:30:00,
2013-04-01 03:40:00,41.2,33.9,29.67,NW,318,16.0,16.0,75,0.00,CLR,FEW,0.00,WeatherDisplay:10.37,2013-04-01 07:40:00,
2013-04-01 03:50:00,40.3,33.3,29.67,NW,317,10.0,14.0,76,0.00,CLR,FEW,0.00,WeatherDisplay:10.37,2013-04-01 07:50:00,
2013-04-01 04:00:00,39.6,32.6,29.67,West,275,12.0,13.0,76,0.00,CLR,FEW,0.00,WeatherDisplay:10.37,2013-04-01 08:00:00,
2013-04-01 04:05:00,39.6,32.0,29.67,West,281,12.0,15.0,74,0.00,CLR,FEW,0.00,WeatherDisplay:10.37,2013-04-01 08:05:00,
2013-04-01 04:10:00,40.1,32.5,29.67,West,281,13.0,15.0,74,0.00,CLR,FEW,0.00,WeatherDisplay:10.37,2013-04-01 08:10:00,
2013-04-01 04:20:00,39.2,31.3,29.67,WNW,289,12.0,13.0,73,0.00,CLR,FEW,0.00,WeatherDisplay:10.37,2013-04-01 08:20:00,
2013-04-01 04:30:00,38.8,30.9,29.67,West,266,9.0,9.0,73,0.00,CLR,FEW,0.00,WeatherDisplay:10.37,2013-04-01 08:30:00,
2013-04-01 04:40:00,38.5,30.6,29.67,WNW,299,10.0,20.0,73,0.00,CLR,FEW,0.00,WeatherDisplay:10.37,2013-04-01 08:40:00,
2013-04-01 04:50:00,38.5,30.9,29.70,WNW,301,10.0,11.0,74,0.00,CLR,FEW,0.00,WeatherDisplay:10.37,2013-04-01 08:50:00,
2013-04-01 04:55:00,38.3,30.4,29.70,WNW,301,9.0,11.0,73,0.00,CLR,FEW,0.00,WeatherDisplay:10.37,2013-04-01 08:55:00,
2013-04-01 05:00:00,38.3,30.7,29.70,WNW,299,8.0,9.0,74,0.00,CLR,FEW,0.00,WeatherDisplay:10.37,2013-04-01 09:00:00,
2013-04-01 05:05:00,38.1,30.6,29.70,WNW,298,8.0,8.0,74,0.00,CLR,FEW,0.00,WeatherDisplay:10.37,2013-04-01 09:05:00,
2013-04-01 05:10:00,38.1,30.6,29.70,WNW,283,8.0,8.0,74,0.00,CLR,FEW,0.00,WeatherDisplay:10.37,2013-04-01 09:10:00,
2013-04-01 05:20:00,37.8,30.5,29.70,NW,304,7.0,13.0,75,0.00,CLR,FEW,0.00,WeatherDisplay:10.37,2013-04-01 09:20:00,
2013-04-01 05:30:00,37.6,30.4,29.70,WNW,289,8.0,15.0,75,0.00,CLR,FEW,0.00,WeatherDisplay:10.37,2013-04-01 09:30:00,
2013-04-01 05:40:00,37.2,30.7,29.70,NW,312,8.0,12.0,77,0.00,CLR,FEW,0.00,WeatherDisplay:10.37,2013-04-01 09:40:00,
2013-04-01 05:50:00,37.0,30.8,29.70,NW,311,7.0,12.0,78,0.00,CLR,FEW,0.00,WeatherDisplay:10.37,2013-04-01 09:50:00,
2013-04-01 06:00:00,36.9,31.3,29.73,WNW,286,6.0,9.0,80,0.00,CLR,FEW,0.00,WeatherDisplay:10.37,2013-04-01 10:00:00,
2013-04-01 06:05:00,37.0,31.4,29.73,NNW,329,7.0,9.0,80,0.00,CLR,FEW,0.00,WeatherDisplay:10.37,2013-04-01 10:05:00,
2013-04-01 06:10:00,36.9,31.3,29.73,NNW,333,7.0,9.0,80,0.00,CLR,FEW,0.00,WeatherDisplay:10.37,2013-04-01 10:10:00,
2013-04-01 06:20:00,37.4,31.5,29.73,NW,304,9.0,14.0,79,0.00,CLR,FEW,0.00,WeatherDisplay:10.37,2013-04-01 10:20:00,
2013-04-01 06:30:00,37.4,31.8,29.73,NW,322,9.0,9.0,80,0.00,CLR,FEW,0.00,WeatherDisplay:10.37,2013-04-01 10:30:00,
2013-04-01 06:40:00,36.9,32.5,29.73,NNW,347,8.0,11.0,84,0.00,CLR,FEW,0.00,WeatherDisplay:10.37,2013-04-01 10:40:00,
2013-04-01 06:50:00,36.1,32.6,29.76,NNW,346,9.0,14.0,87,0.00,CLR,FEW,0.00,WeatherDisplay:10.37,2013-04-01 10:50:00,
2013-04-01 07:00:00,35.4,32.5,29.76,NNW,344,12.0,14.0,89,0.00,CLR,FEW,0.00,WeatherDisplay:10.37,2013-04-01 11:00:00,
2013-04-01 07:05:00,35.2,32.3,29.76,NNW,334,13.0,15.0,89,0.00,CLR,FEW,0.00,WeatherDisplay:10.37,2013-04-01 11:05:00,
2013-04-01 07:10:00,35.2,32.3,29.76,NW,326,13.0,15.0,89,0.00,CLR,FEW,0.00,WeatherDisplay:10.37,2013-04-01 11:10:00,
2013-04-01 07:15:00,35.1,32.1,29.76,NW,322,12.0,12.0,89,0.00,CLR,FEW,0.00,WeatherDisplay:10.37,2013-04-01 11:15:00,
2013-04-01 07:20:00,34.7,31.8,29.76,NNW,330,9.0,14.0,89,0.00,CLR,FEW,0.00,WeatherDisplay:10.37,2013-04-01 11:20:00,
2013-04-01 07:30:00,34.7,32.1,29.79,NW,315,10.0,17.0,90,0.00,CLR,FEW,0.00,WeatherDisplay:10.37,2013-04-01 11:30:00,
2013-04-01 07:40:00,34.2,31.8,29.79,NW,309,13.0,13.0,91,0.00,CLR,FEW,0.00,WeatherDisplay:10.37,2013-04-01 11:40:00,
2013-04-01 07:50:00,34.3,32.0,29.79,WNW,296,8.0,8.0,91,0.00,CLR,FEW,0.00,WeatherDisplay:10.37,2013-04-01 11:50:00,
2013-04-01 07:55:00,34.2,31.8,29.79,NW,310,7.0,14.0,91,0.00,CLR,FEW,0.00,WeatherDisplay:10.37,2013-04-01 11:55:00,
2013-04-01 08:00:00,34.2,32.1,29.82,NW,318,8.0,14.0,92,0.00,CLR,FEW,0.00,WeatherDisplay:10.37,2013-04-01 12:00:00,
2013-04-01 08:05:00,34.2,32.1,29.82,NW,321,8.0,12.0,92,0.00,CLR,FEW,0.00,WeatherDisplay:10.37,2013-04-01 12:05:00,
2013-04-01 08:10:00,34.2,32.1,29.82,NNW,332,8.0,12.0,92,0.00,CLR,FEW,0.00,WeatherDisplay:10.37,2013-04-01 12:10:00,
2013-04-01 08:20:00,34.2,32.3,29.82,NNW,330,7.0,8.0,93,0.00,CLR,FEW,0.00,WeatherDisplay:10.37,2013-04-01 12:20:00,
2013-04-01 08:30:00,34.3,32.5,29.82,NNW,348,6.0,8.0,93,0.00,CLR,FEW,0.00,WeatherDisplay:10.37,2013-04-01 12:30:00,
2013-04-01 08:40:00,34.2,31.8,29.82,NNW,342,6.0,12.0,91,0.00,CLR,FEW,0.00,WeatherDisplay:10.37,2013-04-01 12:40:00,
2013-04-01 08:50:00,34.3,31.4,29.82,NNW,330,7.0,14.0,89,0.00,CLR,FEW,0.00,WeatherDisplay:10.37,2013-04-01 12:50:00,
2013-04-01 09:00:00,34.7,30.4,29.82,NW,325,9.0,13.0,84,0.00,CLR,FEW,0.00,WeatherDisplay:10.37,2013-04-01 13:00:00,
2013-04-01 09:05:00,35.8,29.6,29.82,NW,321,12.0,15.0,78,0.00,CLR,FEW,0.00,WeatherDisplay:10.37,2013-04-01 13:05:00,
2013-04-01 09:10:00,36.0,29.1,29.82,NW,320,13.0,22.0,76,0.00,CLR,FEW,0.00,WeatherDisplay:10.37,2013-04-01 13:10:00,
2013-04-01 09:20:00,36.3,27.1,29.85,NW,315,16.0,18.0,69,0.00,CLR,FEW,0.00,WeatherDisplay:10.37,2013-04-01 13:20:00,
2013-04-01 09:30:00,36.9,26.9,29.85,NNW,331,17.0,17.0,67,0.00,CLR,FEW,0.00,WeatherDisplay:10.37,2013-04-01 13:30:00,
2013-04-01 09:40:00,36.5,26.6,29.85,NW,321,15.0,16.0,67,0.00,CLR,FEW,0.00,WeatherDisplay:10.37,2013-04-01 13:40:00,
2013-04-01 09:50:00,35.1,24.8,29.85,NW,318,14.0,17.0,66,0.00,CLR,FEW,0.00,WeatherDisplay:10.37,2013-04-01 13:50:00,
2013-04-01 10:00:00,36.9,24.3,29.85,NNW,332,15.0,18.0,60,0.00,CLR,FEW,0.00,WeatherDisplay:10.37,2013-04-01 14:00:00,
2013-04-01 10:05:00,37.9,23.2,29.85,NNW,337,14.0,14.0,55,0.00,CLR,FEW,0.00,WeatherDisplay:10.37,2013-04-01 14:05:00,
2013-04-01 10:10:00,37.9,23.2,29.88,NNW,336,13.0,13.0,55,0.00,CLR,FEW,0.00,WeatherDisplay:10.37,2013-04-01 14:10:00,
2013-04-01 10:15:00,38.3,23.5,29.88,NW,322,12.0,16.0,55,0.00,CLR,FEW,0.00,WeatherDisplay:10.37,2013-04-01 14:15:00,
2013-04-01 10:20:00,38.1,22.0,29.88,NW,326,13.0,20.0,52,0.00,CLR,FEW,0.00,WeatherDisplay:10.37,2013-04-01 14:20:00,
2013-04-01 10:30:00,39.7,22.1,29.88,NW,321,16.0,16.0,49,0.00,CLR,FEW,0.00,WeatherDisplay:10.37,2013-04-01 14:30:00,
2013-04-01 10:40:00,39.2,21.6,29.88,NW,325,15.0,20.0,49,0.00,CLR,FEW,0.00,WeatherDisplay:10.37,2013-04-01 14:40:00,
2013-04-01 10:50:00,38.7,21.1,29.88,NNW,327,16.0,21.0,49,0.00,CLR,FEW,0.00,WeatherDisplay:10.37,2013-04-01 14:50:00,
2013-04-01 11:00:00,39.9,22.3,29.88,NNW,328,15.0,15.0,49,0.00,CLR,FEW,0.00,WeatherDisplay:10.37,2013-04-01 15:00:00,
2013-04-01 11:05:00,38.8,21.3,29.88,NNW,348,14.0,15.0,49,0.00,CLR,FEW,0.00,WeatherDisplay:10.37,2013-04-01 15:05:00,
2013-04-01 11:10:00,39.9,22.3,29.88,NNW,340,13.0,15.0,49,0.00,CLR,FEW,0.00,WeatherDisplay:10.37,2013-04-01 15:10:00,
2013-04-01 11:15:00,38.8,21.3,29.88,WNW,303,12.0,17.0,49,0.00,CLR,FEW,0.00,WeatherDisplay:10.37,2013-04-01 15:15:00,
2013-04-01 11:20:00,38.7,21.1,29.88,WNW,294,13.0,17.0,49,0.00,CLR,FEW,0.00,WeatherDisplay:10.37,2013-04-01 15:20:00,
2013-04-01 11:25:00,39.6,22.0,29.88,WNW,298,13.0,13.0,49,0.00,CLR,FEW,0.00,WeatherDisplay:10.37,2013-04-01 15:25:00,
2013-04-01 11:30:00,39.6,22.0,29.88,WNW,289,12.0,12.0,49,0.00,CLR,FEW,0.00,WeatherDisplay:10.37,2013-04-01 15:30:00,
2013-04-01 11:35:00,41.2,23.4,29.88,NW,312,12.0,14.0,49,0.00,CLR,FEW,0.00,WeatherDisplay:10.37,2013-04-01 15:35:00,
2013-04-01 11:40:00,41.7,23.9,29.88,NW,305,12.0,12.0,49,0.00,CLR,FEW,0.00,WeatherDisplay:10.37,2013-04-01 15:40:00,
2013-04-01 11:50:00,41.2,23.4,29.88,West,279,12.0,14.0,49,0.00,CLR,FEW,0.00,WeatherDisplay:10.37,2013-04-01 15:50:00,
2013-04-01 12:00:00,43.3,25.4,29.88,WNW,303,12.0,12.0,49,0.00,CLR,FEW,0.00,WeatherDisplay:10.37,2013-04-01 16:00:00,
2013-04-01 12:05:00,43.3,25.4,29.88,WNW,290,12.0,12.0,49,0.00,CLR,FEW,0.00,WeatherDisplay:10.37,2013-04-01 16:05:00,
2013-04-01 12:10:00,41.0,23.3,29.88,WNW,301,10.0,13.0,49,0.00,CLR,FEW,0.00,WeatherDisplay:10.37,2013-04-01 16:10:00,
2013-04-01 12:20:00,41.5,23.8,29.91,WNW,298,12.0,14.0,49,0.00,CLR,FEW,0.00,WeatherDisplay:10.37,2013-04-01 16:20:00,
2013-04-01 12:25:00,41.7,23.9,29.91,NW,317,12.0,14.0,49,0.00,CLR,FEW,0.00,WeatherDisplay:10.37,2013-04-01 16:25:00,
2013-04-01 12:30:00,41.9,24.1,29.91,NW,312,13.0,17.0,49,0.00,CLR,FEW,0.00,WeatherDisplay:10.37,2013-04-01 16:30:00,
2013-04-01 12:40:00,40.3,22.6,29.91,WNW,288,12.0,13.0,49,0.00,CLR,FEW,0.00,WeatherDisplay:10.37,2013-04-01 16:40:00,
2013-04-01 12:50:00,41.5,23.8,29.91,NW,306,12.0,17.0,49,0.00,CLR,FEW,0.00,WeatherDisplay:10.37,2013-04-01 16:50:00,
2013-04-01 13:00:00,42.6,24.8,29.91,WNW,295,12.0,14.0,49,0.00,CLR,FEW,0.00,WeatherDisplay:10.37,2013-04-01 17:00:00,
2013-04-01 13:05:00,42.6,24.8,29.91,WNW,294,13.0,18.0,49,0.00,CLR,FEW,0.00,WeatherDisplay:10.37,2013-04-01 17:05:00,
2013-04-01 13:10:00,41.5,23.8,29.91,WNW,294,13.0,13.0,49,0.00,CLR,FEW,0.00,WeatherDisplay:10.37,2013-04-01 17:10:00,
2013-04-01 13:15:00,40.6,22.9,29.91,NW,321,14.0,19.0,49,0.00,CLR,FEW,0.00,WeatherDisplay:10.37,2013-04-01 17:15:00,
2013-04-01 13:25:00,41.0,23.3,29.91,NW,321,15.0,15.0,49,0.00,CLR,FEW,0.00,WeatherDisplay:10.37,2013-04-01 17:25:00,
2013-04-01 13:30:00,41.2,23.4,29.91,NW,316,15.0,15.0,49,0.00,CLR,FEW,0.00,WeatherDisplay:10.37,2013-04-01 17:30:00,
2013-04-01 13:40:00,40.6,22.9,29.91,NW,324,13.0,15.0,49,0.00,CLR,FEW,0.00,WeatherDisplay:10.37,2013-04-01 17:40:00,
2013-04-01 13:45:00,41.0,23.3,29.91,NW,306,13.0,22.0,49,0.00,CLR,FEW,0.00,WeatherDisplay:10.37,2013-04-01 17:45:00,
2013-04-01 13:50:00,39.7,22.1,29.91,WNW,294,14.0,22.0,49,0.00,CLR,FEW,0.00,WeatherDisplay:10.37,2013-04-01 17:50:00,
2013-04-01 14:00:00,41.2,23.4,29.91,WNW,292,16.0,20.0,49,0.00,CLR,FEW,0.00,WeatherDisplay:10.37,2013-04-01 18:00:00,
2013-04-01 14:05:00,40.3,22.6,29.91,WNW,297,15.0,15.0,49,0.00,CLR,FEW,0.00,WeatherDisplay:10.37,2013-04-01 18:05:00,
2013-04-01 14:10:00,39.6,22.0,29.91,NW,308,14.0,18.0,49,0.00,CLR,FEW,0.00,WeatherDisplay:10.37,2013-04-01 18:10:00,
2013-04-01 14:20:00,40.3,22.6,29.91,West,278,14.0,17.0,49,0.00,CLR,FEW,0.00,WeatherDisplay:10.37,2013-04-01 18:20:00,
2013-04-01 14:30:00,40.5,22.8,29.91,WNW,285,18.0,28.0,49,0.00,CLR,FEW,0.00,WeatherDisplay:10.37,2013-04-01 18:30:00,
2013-04-01 14:40:00,41.4,23.6,29.91,WNW,291,18.0,18.0,49,0.00,CLR,FEW,0.00,WeatherDisplay:10.37,2013-04-01 18:40:00,
2013-04-01 14:50:00,40.6,22.9,29.91,NNW,337,15.0,15.0,49,0.00,CLR,FEW,0.00,WeatherDisplay:10.37,2013-04-01 18:50:00,
2013-04-01 15:00:00,40.6,22.9,29.91,WNW,299,15.0,22.0,49,0.00,CLR,FEW,0.00,WeatherDisplay:10.37,2013-04-01 19:00:00,
2013-04-01 15:05:00,41.5,23.8,29.91,WNW,291,14.0,14.0,49,0.00,CLR,FEW,0.00,WeatherDisplay:10.37,2013-04-01 19:05:00,
2013-04-01 15:10:00,42.4,24.6,29.91,WNW,294,13.0,14.0,49,0.00,CLR,FEW,0.00,WeatherDisplay:10.37,2013-04-01 19:10:00,
2013-04-01 15:20:00,40.6,22.9,29.91,NNW,336,10.0,12.0,49,0.00,CLR,FEW,0.00,WeatherDisplay:10.37,2013-04-01 19:20:00,
2013-04-01 15:30:00,42.4,24.6,29.91,NW,313,9.0,13.0,49,0.00,CLR,FEW,0.00,WeatherDisplay:10.37,2013-04-01 19:30:00,
2013-04-01 15:40:00,41.5,23.8,29.91,NW,307,10.0,14.0,49,0.00,CLR,FEW,0.00,WeatherDisplay:10.37,2013-04-01 19:40:00,
2013-04-01 15:45:00,40.6,22.9,29.91,NW,317,12.0,15.0,49,0.00,CLR,FEW,0.00,WeatherDisplay:10.37,2013-04-01 19:45:00,
2013-04-01 15:50:00,39.4,21.8,29.91,NNW,335,13.0,15.0,49,0.00,CLR,FEW,0.00,WeatherDisplay:10.37,2013-04-01 19:50:00,
2013-04-01 16:00:00,39.7,22.1,29.91,NW,310,13.0,14.0,49,0.00,CLR,FEW,0.00,WeatherDisplay:10.37,2013-04-01 20:00:00,
2013-04-01 16:05:00,39.9,22.3,29.91,NNW,328,13.0,14.0,49,0.00,CLR,FEW,0.00,WeatherDisplay:10.37,2013-04-01 20:05:00,
2013-04-01 16:10:00,40.8,23.1,29.91,NW,322,12.0,14.0,49,0.00,CLR,FEW,0.00,WeatherDisplay:10.37,2013-04-01 20:10:00,
2013-04-01 16:20:00,39.9,22.3,29.91,NW,310,12.0,16.0,49,0.00,CLR,FEW,0.00,WeatherDisplay:10.37,2013-04-01 20:20:00,
2013-04-01 16:30:00,40.5,22.8,29.91,WNW,284,12.0,17.0,49,0.00,CLR,FEW,0.00,WeatherDisplay:10.37,2013-04-01 20:30:00,
2013-04-01 16:40:00,40.1,22.4,29.91,WNW,300,14.0,15.0,49,0.00,CLR,FEW,0.00,WeatherDisplay:10.37,2013-04-01 20:40:00,
2013-04-01 16:50:00,39.6,22.0,29.91,WNW,292,14.0,14.0,49,0.00,CLR,FEW,0.00,WeatherDisplay:10.37,2013-04-01 20:50:00,
2013-04-01 17:00:00,39.9,22.3,29.91,WNW,298,10.0,12.0,49,0.00,CLR,FEW,0.00,WeatherDisplay:10.37,2013-04-01 21:00:00,
2013-04-01 17:05:00,39.6,22.0,29.91,West,279,9.0,12.0,49,0.00,CLR,FEW,0.00,WeatherDisplay:10.37,2013-04-01 21:05:00,
2013-04-01 17:10:00,39.7,22.1,29.91,WNW,286,9.0,9.0,49,0.00,CLR,FEW,0.00,WeatherDisplay:10.37,2013-04-01 21:10:00,
2013-04-01 17:20:00,39.7,22.1,29.91,WSW,255,6.0,6.0,49,0.00,CLR,FEW,0.00,WeatherDisplay:10.37,2013-04-01 21:20:00,
2013-04-01 17:30:00,40.3,22.6,29.91,WNW,298,6.0,12.0,49,0.00,CLR,FEW,0.00,WeatherDisplay:10.37,2013-04-01 21:30:00,
2013-04-01 17:40:00,39.9,22.3,29.91,NW,306,8.0,9.0,49,0.00,CLR,FEW,0.00,WeatherDisplay:10.37,2013-04-01 21:40:00,
2013-04-01 17:50:00,39.4,21.8,29.91,WNW,289,8.0,10.0,49,0.00,CLR,FEW,0.00,WeatherDisplay:10.37,2013-04-01 21:50:00,
2013-04-01 17:55:00,39.6,22.0,29.91,NW,304,8.0,8.0,49,0.00,CLR,FEW,0.00,WeatherDisplay:10.37,2013-04-01 21:55:00,
2013-04-01 18:05:00,38.8,21.3,29.91,WNW,296,12.0,16.0,49,0.00,CLR,FEW,0.00,WeatherDisplay:10.37,2013-04-01 22:05:00,
2013-04-01 18:10:00,38.8,21.3,29.91,WNW,297,13.0,16.0,49,0.00,CLR,FEW,0.00,WeatherDisplay:10.37,2013-04-01 22:10:00,
2013-04-01 18:20:00,38.3,20.8,29.91,NW,310,13.0,13.0,49,0.00,CLR,FEW,0.00,WeatherDisplay:10.37,2013-04-01 22:20:00,
2013-04-01 18:30:00,37.9,20.5,29.91,WNW,293,13.0,16.0,49,0.00,CLR,FEW,0.00,WeatherDisplay:10.37,2013-04-01 22:30:00,
2013-04-01 18:40:00,37.8,20.3,29.91,NW,317,10.0,12.0,49,0.00,CLR,FEW,0.00,WeatherDisplay:10.37,2013-04-01 22:40:00,
2013-04-01 18:50:00,37.6,20.1,29.91,NW,312,10.0,13.0,49,0.00,CLR,FEW,0.00,WeatherDisplay:10.37,2013-04-01 22:50:00,
2013-04-01 18:55:00,37.6,20.1,29.91,NW,306,12.0,12.0,49,0.00,CLR,FEW,0.00,WeatherDisplay:10.37,2013-04-01 22:55:00,
2013-04-01 19:00:00,37.2,19.8,29.91,WNW,291,10.0,10.0,49,0.00,CLR,FEW,0.00,WeatherDisplay:10.37,2013-04-01 23:00:00,
2013-04-01 19:05:00,36.9,19.5,29.94,NW,314,8.0,10.0,49,0.00,CLR,FEW,0.00,WeatherDisplay:10.37,2013-04-01 23:05:00,
2013-04-01 19:10:00,36.9,19.5,29.94,NW,320,7.0,7.0,49,0.00,CLR,FEW,0.00,WeatherDisplay:10.37,2013-04-01 23:10:00,
2013-04-01 19:20:00,36.1,18.8,29.94,NW,312,6.0,7.0,49,0.00,CLR,FEW,0.00,WeatherDisplay:10.37,2013-04-01 23:20:00,
2013-04-01 19:30:00,36.3,19.0,29.94,NW,310,6.0,8.0,49,0.00,CLR,FEW,0.00,WeatherDisplay:10.37,2013-04-01 23:30:00,
2013-04-01 19:40:00,36.1,18.8,29.94,NW,319,6.0,6.0,49,0.00,CLR,FEW,0.00,WeatherDisplay:10.37,2013-04-01 23:40:00,
2013-04-01 19:50:00,35.6,18.3,29.94,WNW,303,7.0,10.0,49,0.00,CLR,FEW,0.00,WeatherDisplay:10.37,2013-04-01 23:50:00,
2013-04-01 20:00:00,35.2,18.0,29.94,WNW,293,7.0,10.0,49,0.00,CLR,FEW,0.00,WeatherDisplay:10.37,2013-04-02 00:00:00,
2013-04-01 20:05:00,35.4,18.1,29.94,West,274,6.0,9.0,49,0.00,CLR,FEW,0.00,WeatherDisplay:10.37,2013-04-02 00:05:00,
2013-04-01 20:10:00,35.4,18.1,29.94,WNW,286,7.0,9.0,49,0.00,CLR,FEW,0.00,WeatherDisplay:10.37,2013-04-02 00:10:00,
2013-04-01 20:20:00,35.6,18.3,29.94,WNW,285,7.0,9.0,49,0.00,CLR,FEW,0.00,WeatherDisplay:10.37,2013-04-02 00:20:00,
2013-04-01 20:30:00,35.2,18.0,29.94,West,281,7.0,7.0,49,0.00,CLR,FEW,0.00,WeatherDisplay:10.37,2013-04-02 00:30:00,
2013-04-01 20:40:00,35.1,17.8,29.94,NW,317,3.0,0.0,49,0.00,CLR,FEW,0.00,WeatherDisplay:10.37,2013-04-02 00:40:00,
2013-04-01 20:45:00,34.9,17.6,29.94,NW,312,3.0,11.0,49,0.00,CLR,FEW,0.00,WeatherDisplay:10.37,2013-04-02 00:45:00,
2013-04-01 20:50:00,34.9,19.0,29.94,NW,305,3.0,7.0,52,0.00,CLR,FEW,0.00,WeatherDisplay:10.37,2013-04-02 00:50:00,
2013-04-01 21:00:00,34.9,19.9,29.94,NW,310,6.0,12.0,54,0.00,CLR,FEW,0.00,WeatherDisplay:10.37,2013-04-02 01:00:00,
2013-04-01 21:05:00,34.7,18.9,29.94,NW,316,6.0,7.0,52,0.00,CLR,FEW,0.00,WeatherDisplay:10.37,2013-04-02 01:05:00,
2013-04-01 21:10:00,34.7,19.7,29.94,NW,310,7.0,9.0,54,0.00,CLR,FEW,0.00,WeatherDisplay:10.37,2013-04-02 01:10:00,
2013-04-01 21:20:00,34.7,19.7,29.94,NW,317,6.0,6.0,54,0.00,CLR,FEW,0.00,WeatherDisplay:10.37,2013-04-02 01:20:00,
2013-04-01 21:30:00,34.5,18.7,29.97,NW,325,7.0,12.0,52,0.00,CLR,FEW,0.00,WeatherDisplay:10.37,2013-04-02 01:30:00,
2013-04-01 21:40:00,34.5,19.6,29.97,NW,310,9.0,14.0,54,0.00,CLR,FEW,0.00,WeatherDisplay:10.37,2013-04-02 01:40:00,
2013-04-01 21:50:00,34.3,18.5,29.97,NW,319,10.0,12.0,52,0.00,CLR,FEW,0.00,WeatherDisplay:10.37,2013-04-02 01:50:00,
2013-04-01 22:00:00,34.3,17.6,29.97,NW,323,12.0,15.0,50,0.00,CLR,FEW,0.00,WeatherDisplay:10.37,2013-04-02 02:00:00,
2013-04-01 22:05:00,34.3,19.4,29.97,NW,313,12.0,15.0,54,0.00,CLR,FEW,0.00,WeatherDisplay:10.37,2013-04-02 02:05:00,
2013-04-01 22:10:00,34.3,18.5,29.97,NW,318,12.0,12.0,52,0.00,CLR,FEW,0.00,WeatherDisplay:10.37,2013-04-02 02:10:00,
2013-04-01 22:20:00,34.3,19.4,29.97,NW,313,10.0,11.0,54,0.00,CLR,FEW,0.00,WeatherDisplay:10.37,2013-04-02 02:20:00,
2013-04-01 22:30:00,34.2,19.2,29.97,NNW,328,9.0,13.0,54,0.00,CLR,FEW,0.00,WeatherDisplay:10.37,2013-04-02 02:30:00,
2013-04-01 22:40:00,34.0,19.1,29.97,NNW,330,10.0,14.0,54,0.00,CLR,FEW,0.00,WeatherDisplay:10.37,2013-04-02 02:40:00,
2013-04-01 22:50:00,33.6,19.6,29.97,NW,316,9.0,13.0,56,0.00,CLR,FEW,0.00,WeatherDisplay:10.37,2013-04-02 02:50:00,
2013-04-01 23:00:00,33.6,20.8,29.97,WNW,295,8.0,12.0,59,0.00,CLR,FEW,0.00,WeatherDisplay:10.37,2013-04-02 03:00:00,
2013-04-01 23:05:00,33.4,20.6,30.00,NW,309,9.0,10.0,59,0.00,CLR,FEW,0.00,WeatherDisplay:10.37,2013-04-02 03:05:00,
2013-04-01 23:10:00,33.4,20.2,30.00,NW,320,10.0,13.0,58,0.00,CLR,FEW,0.00,WeatherDisplay:10.37,2013-04-02 03:10:00,
2013-04-01 23:20:00,33.1,20.3,30.00,NW,312,10.0,14.0,59,0.00,CLR,FEW,0.00,WeatherDisplay:10.37,2013-04-02 03:20:00,
2013-04-01 23:25:00,32.7,20.4,30.00,NW,316,12.0,14.0,60,0.00,CLR,FEW,0.00,WeatherDisplay:10.37,2013-04-02 03:25:00,
2013-04-01 23:30:00,33.1,21.1,30.00,NNW,330,12.0,13.0,61,0.00,CLR,FEW,0.00,WeatherDisplay:10.37,2013-04-02 03:30:00,
2013-04-01 23:40:00,32.7,20.7,30.00,NW,326,13.0,14.0,61,0.00,CLR,FEW,0.00,WeatherDisplay:10.37,2013-04-02 03:40:00,
2013-04-01 23:50:00,32.2,20.2,30.00,NW,318,13.0,14.0,61,0.00,CLR,FEW,0.00,WeatherDisplay:10.37,2013-04-02 03:50:00,